Location: Killam
(52.7910°N, 111.8608°W)
Time: 20:35:06
(UTC+00:00)

Envisat - Visible Passes

Search period start: 23 April 2024 00:00
Search period end: 03 May 2024 00:00
Orbit: 762 x 764 km, 98.3° (Epoch: 23 April)

Date Brightness Start Highest point End Pass type
(mag) Time Alt. Az. Time Alt. Az. Time Alt. Az.
23 Apr 4.1 10:25:00 10° NNE 10:29:49 42° E 10:34:37 10° SSE visible
24 Apr 5.1 09:48:13 10° NE 09:52:09 22° E 09:56:03 10° SE visible
24 Apr 3.1 11:26:32 10° N 11:31:36 66° WNW 11:36:37 10° SSW visible
25 Apr 5.7 09:12:53 10° ENE 09:14:15 11° E 09:15:39 10° E visible
25 Apr 3.4 10:49:11 10° NNE 10:54:15 65° ESE 10:59:18 10° S visible
26 Apr 4.5 10:12:06 10° NNE 10:16:43 33° E 10:21:17 10° SSE visible
27 Apr 5.4 09:35:35 10° NE 09:38:57 18° E 09:42:20 10° SE visible
27 Apr 3.0 11:13:29 10° NNE 11:18:36 82° WNW 11:23:40 10° SSW visible
28 Apr 3.8 10:36:12 10° NNE 10:41:11 52° E 10:46:07 10° S visible
29 Apr 4.8 09:59:16 10° NE 10:03:34 27° E 10:07:50 10° SSE visible
30 Apr 5.5 09:23:08 10° NE 09:25:44 14° E 09:28:20 10° ESE visible
30 Apr 3.1 11:00:26 10° NNE 11:05:33 80° ESE 11:10:38 10° SSW visible
01 May 4.2 10:23:16 10° NNE 10:28:05 41° E 10:32:51 10° SSE visible
02 May 5.2 09:46:30 10° NE 09:50:23 22° E 09:54:15 10° SE visible
